Main page
METAR-TAF:

METAR-TAF

Airports :

Ramsar International Airport

Ramsar, Iran

latitude: 36-54N, longitude: 050-40E, elevation: -23 m

Current weather observation

The report was made 1 hour and 8 minutes ago, at 16:00 UTC
Wind 2 kt from the West/Southwest
Temperature 18°C
Humidity 83%
Pressure 1020 hPa
Visibility 10 km or more
Few clouds at a height of 2700 ft

METAR: OINR 181600Z 24002KT 9999 FEW027 18/15 Q1020

Time: 20:38 (17:08 UTC)


TAF: missing

Weather observations and forecasts of more than 4000 airports (METAR and TAF reports).

The available stations are represented by yellow and red dots on the map.

Hover mouse over dot to see the name of the station.

Then click to see weather observations and forecasts.

To change the map : click on the green buttons with a black cross to zoom in, on the green button with a dash to zoom out, or on the green arrows for adjacent maps.


METAR-TAF: